Regional Weather Roundup
Issued by NWS Charleston, WV

Home | Current Version | Previous Version | Graphics & Text | Print | Product List | Glossary On
Versions: 1 2 3 4 5 6 7 8 9 10 11 12 13 14 15 16 17 18 19 20 21 22 23 24 25 26 27 28 29 30 31 32 33 34 35 36 37 38 39 40 41 42 43 44 45 46 47 48 49 50
000
ASUS41 KRLX 181210
RWRRLX
West Virginia Regional Weather Roundup
National Weather Service Charleston WV
700 AM EST THU DEC 18 2014

Note: "fair" indicates few or no clouds below 12,000 feet with no
significant weather and/or obstructions to visibility.

WVZ003-181300-
Northern Panhandle of West Virginia

CITY           SKY/WX    TMP DP  RH WIND       PRES   REMARKS
WHEELING       CLOUDY    27  19  72 W6        30.20R
$$

WVZ009-181300-
Northwest West Virginia

CITY           SKY/WX    TMP DP  RH WIND       PRES   REMARKS
PARKERSBURG    CLOUDY    28  18  66 NW7       30.27S
$$

WVZ006-181300-
Western West Virginia

CITY           SKY/WX    TMP DP  RH WIND       PRES   REMARKS
HUNTINGTON     CLOUDY    29  22  75 CALM      30.23F
$$

WVZ015-181300-
West Central West Virginia

CITY           SKY/WX    TMP DP  RH WIND       PRES   REMARKS
CHARLESTON     CLOUDY    30  21  69 VRB5      30.24R
$$

WVZ022-031-181300-
North Central West Virginia

CITY           SKY/WX    TMP DP  RH WIND       PRES   REMARKS
CLARKSBURG     CLOUDY    27  19  72 W10       30.21R
MORGANTOWN     CLOUDY    27  17  66 NW5       30.21R
$$

WVZ025-035-042-045-181300-
Southern West Virginia

CITY           SKY/WX    TMP DP  RH WIND       PRES   REMARKS
BECKLEY        CLOUDY    26  19  74 NW8       30.14R
LOGAN          CLOUDY    28  23  80 CALM      30.19S
BLUEFIELD      CLOUDY    27  21  78 W7        30.13R
LEWISBURG      PTCLDY    28  20  73 W3        30.12S
$$

WVZ047-181300-
Northern Mountains of West Virginia

CITY           SKY/WX    TMP DP  RH WIND       PRES   REMARKS
ELKINS         CLOUDY    25  20  81 W6        30.16R
$$

WVZ052-181300-
Eastern Panhandle of West Virginia

CITY           SKY/WX    TMP DP  RH WIND       PRES   REMARKS
MARTINSBURG    CLOUDY    32  16  51 VRB7      30.15R
PETERSBURG     PTCLDY    30  17  56 W8        30.18R
$$


USA.gov is the U.S. government's official web portal to all federal, state and local government web resources and services.